Location: Cudham
(51.3000°N, 0.0667°E)
Time: 03:10:09
(UTC+00:00)

Cosmos 2058 Rocket - Pass Details

Date: 15 May 2026
Orbit: 604 x 632 km, 82.5° (Epoch: 8 June)

Event Time Altitude Azimuth Distance (km) Brightness Sun altitude
Exits shadow 22:30:59 33° 180° (S) 1,028 3.7 -17.2°
Maximum altitude 22:32:53 78° 98° (E) 626 2.9 -17.3°
Drops below altitude 10° 22:37:14 10° 13° (NNE) 1,965 6.5 -17.6°
Sets 22:39:27 0° 12° (NNE) 2,873 7.5 -17.7°
